Terminal Aerodrome Forecast
Issued by NWS

Home | Current Version | Previous Version | Text Only | Print | Product List | Glossary On
Versions: 1 2 3 4 5 6 7 8 9 10 11 12
000
FTUS46 KHNX 031143
TAFMER
TAF
KMER 031143Z 0312/0412 29006KT P6SM SCT250
     FM032200 31012KT P6SM BKN250
     FM040600 29006KT P6SM BKN250=

USA.gov is the U.S. government's official web portal to all federal, state and local government web resources and services.